This demonstration page uses our WeatherBlox Daily Observations layout. Learn more.

38.80484, -77.04692

Hourly Observations for December 6, 2018

Temp ( °F °C ) Dew Point ( °F °C ) Humidity (%) Winds ( mph kmh ) Pressure ( in mb ) Visibility ( mi km ) Precip ( " mm )
12:52 am 00:52 Partly Cloudy 33 0.6 22 -5.6 64 64 W 7 11 30.24 1024 10 16.09344 0 0
1:52 am 01:52 Mostly Cloudy 35 1.7 21 -6.1 57 57 WNW 6 9 30.24 1024 10 16.09344 0 0
2:52 am 02:52 Cloudy 35 1.7 23 -5 61 61 SW 3 6 30.24 1024 10 16.09344 0 0
3:52 am 03:52 Cloudy 35 1.7 24 -4.4 64 64 SW 5 7 30.27 1025 10 16.09344 0 0
4:52 am 04:52 Cloudy 36 2.2 22 -5.6 57 57 WSW 7 11 30.27 1025 10 16.09344 0 0
5:52 am 05:52 Cloudy 36 2.2 22 -5.6 57 57 WSW 7 11 30.3 1026 10 16.09344 0 0
6:52 am 06:52 Cloudy 37 2.8 21 -6.1 52 52 W 7 11 30.3 1026 10 16.09344 0 0
7:52 am 07:52 Mostly Cloudy 36 2.2 22 -5.6 57 57 S 5 7 30.33 1027 10 16.09344 0 0
8:52 am 08:52 Cloudy 37 2.8 22 -5.6 54 54 SW 8 13 30.33 1027 10 16.09344 0 0
9:52 am 09:52 Mostly Cloudy 39 3.9 21 -6.1 48 48 WSW 9 15 30.33 1027 10 16.09344 0 0
10:52 am 10:52 Mostly Cloudy 41 5 21 -6.1 45 45 WSW 10 17 30.3 1026 10 16.09344 0 0
11:52 am 11:52 Mostly Cloudy 41 5 20 -6.7 43 43 WSW 9 15 30.3 1026 10 16.09344 0 0
12:52 pm 12:52 Cloudy 43 6.1 21 -6.1 42 42 WSW 9 15 30.27 1025 10 16.09344 0 0
1:52 pm 13:52 Cloudy 44 6.7 21 -6.1 40 40 undefined N/A 30.24 1024 10 16.09344 0 0
2:09 pm 14:09 Cloudy 45 7.2 21 -6.1 39 39 W 10 17 30.27 1025 10 16.09344 0 0
2:52 pm 14:52 Cloudy 44 6.7 21 -6.1 40 40 WSW 12 19 30.24 1024 10 16.09344 0 0
3:52 pm 15:52 Cloudy 43 6.1 21 -6.1 42 42 SW 6 9 30.24 1024 10 16.09344 0 0
4:52 pm 16:52 Cloudy 43 6.1 22 -5.6 43 43 S 10 17 30.24 1024 10 16.09344 0 0
5:52 pm 17:52 Cloudy 43 6.1 21 -6.1 42 42 SW 8 13 30.24 1024 10 16.09344 0 0
6:52 pm 18:52 Mostly Cloudy 42 5.6 22 -5.6 45 45 SSW 8 13 30.24 1024 10 16.09344 0 0
7:52 pm 19:52 Mostly Cloudy 43 6.1 22 -5.6 43 43 SSW 12 19 30.24 1024 10 16.09344 0 0
8:52 pm 20:52 Mostly Cloudy 42 5.6 24 -4.4 49 49 SSW 12 19 30.24 1024 10 16.09344 0 0
9:52 pm 21:52 Mostly Cloudy 42 5.6 24 -4.4 49 49 SSW 14 22 30.21 1023 10 16.09344 0 0
10:52 pm 22:52 Cloudy 41 5 24 -4.4 51 51 SW 9 15 30.21 1023 10 16.09344 0 0
11:52 pm 23:52 Cloudy 41 5 23 -5 49 49 SW 5 7 30.24 1024 10 16.09344 0 0

Powered by AerisWeather